Moose, Wyoming, United States (83012)
Lat: 43.66N, Lon: 110.72W
Wx Zone: WYZ013
Local Info
Past Weather Observations for Friday, April 24, 2015

NOTE: This archive is for the closest National Weather Service station to Moose. Information may differ from the station used for current weather conditions.

Click here for Long-term Archive

Time Weather Temperature Dewpoint Humidity Pressure Winds Precip Visibility
23:55
Mostly Cloudy
37°F / 3°C 37°F / 3°C 100% 29.71 in
(1006 mb)
SW 5.8 mph
(SW 9 kph)
0.03 in
(0.76 mm)
10SM
23:35
Overcast
37°F / 3°C 37°F / 3°C 100% 29.71 in
(1006 mb)
SW 5.8 mph
(SW 9 kph)
0.03 in
(0.76 mm)
8SM
23:15
Overcast
37°F / 3°C 37°F / 3°C 100% 29.71 in
(1006 mb)
SW 8.1 mph
(SW 13 kph)
0.02 in
(0.51 mm)
7SM
22:55
Overcast
37°F / 3°C 37°F / 3°C 100% 29.71 in
(1006 mb)
SW 8.1 mph
(SW 13 kph)
- 10SM
22:35
Overcast
37°F / 3°C 37°F / 3°C 100% 29.71 in
(1006 mb)
SSE 6.9 mph
(SSE 11 kph)
- 10SM
22:15
Overcast
37°F / 3°C 37°F / 3°C 100% 29.71 in
(1006 mb)
SW 6.9 mph
(SW 11 kph)
- 10SM
21:55
Overcast
37°F / 3°C 37°F / 3°C 100% 29.74 in
(1007 mb)
SSE 6.9 mph
(SSE 11 kph)
- 10SM
21:35
Overcast
37°F / 3°C 37°F / 3°C 100% 29.74 in
(1007 mb)
S 5.8 mph
(S 9 kph)
- 10SM
21:15
Overcast
39°F / 4°C 37°F / 3°C 93% 29.74 in
(1007 mb)
S 6.9 mph
(S 11 kph)
- 10SM
20:55
Overcast
39°F / 4°C 37°F / 3°C 93% 29.74 in
(1007 mb)
S 5.8 mph
(S 9 kph)
- 10SM
20:35
Overcast
39°F / 4°C 37°F / 3°C 93% 29.74 in
(1007 mb)
S 5.8 mph
(S 9 kph)
- 10SM
20:15
Overcast
39°F / 4°C 39°F / 4°C 100% 29.74 in
(1007 mb)
S 5.8 mph
(S 9 kph)
- 10SM
19:55
Mostly Cloudy
39°F / 4°C 39°F / 4°C 100% 29.74 in
(1007 mb)
SSE 4.6 mph
(SSE 7 kph)
0.01 in
(0.25 mm)
10SM
18:51
Mostly Cloudy
39°F / 4°C 39°F / 4°C 100% 29.74 in
(1007 mb)
Calm - 10SM
17:51
Mostly Cloudy
N/A N/A N/A 29.74 in
(1007 mb)
SE 4.6 mph
(SE 7 kph)
- 10SM
16:51
Overcast
39°F / 4°C 39°F / 4°C 100% 29.71 in
(1006 mb)
ENE 9.2 mph
(ENE 15 kph)
- 10SM
15:51
Overcast
Light Rain
41°F / 5°C 37°F / 3°C 87% 29.74 in
(1007 mb)
S 6.9 mph
(S 11 kph)
- 5SM
14:51
Mostly Cloudy
Showers In Vicinity
52°F / 11°C 28°F / -2°C 41% 29.68 in
(1005 mb)
W 16.1 mph
(W 26 kph)
- 10SM
14:30
Mostly Cloudy
Showers In Vicinity
54°F / 12°C 27°F / -3°C 35% 29.65 in
(1004 mb)
SSW 6.9 mph
(SSW 11 kph)
- 10SM
13:51
Partly Cloudy
Showers In Vicinity
55°F / 13°C 27°F / -3°C 33% 29.68 in
(1005 mb)
S 9.2 mph
(S 15 kph)
- 10SM
12:51
Partly Cloudy
Showers In Vicinity
57°F / 14°C 28°F / -2°C 33% 29.68 in
(1005 mb)
S 15 mph
(S 24 kph)
- 10SM
11:51
Overcast
55°F / 13°C 27°F / -3°C 33% 29.71 in
(1006 mb)
S 12.7 mph
(S 20 kph)
- 10SM
10:51
Partly Cloudy
54°F / 12°C 28°F / -2°C 38% 29.71 in
(1006 mb)
S 11.5 mph
(S 19 kph)
- 10SM
09:51
Clear
46°F / 8°C 34°F / 1°C 62% 29.74 in
(1007 mb)
SW 4.6 mph
(SW 7 kph)
- 10SM
09:00
Clear
45°F / 7°C 34°F / 1°C 66% 29.77 in
(1008 mb)
Calm - 10SM
07:51
Clear
37°F / 3°C 34°F / 1°C 87% 29.77 in
(1008 mb)
Calm - 10SM
06:51
Clear
34°F / 1°C 30°F / -1°C 87% 29.77 in
(1008 mb)
Calm - 10SM
05:35
Clear
27°F / -3°C 27°F / -3°C 100% 29.77 in
(1008 mb)
NNW 3.5 mph
(NNW 6 kph)
- 10SM
05:15
Clear
27°F / -3°C 25°F / -4°C 93% 29.77 in
(1008 mb)
N 5.8 mph
(N 9 kph)
- 10SM
04:55
Clear
25°F / -4°C 23°F / -5°C 93% 29.77 in
(1008 mb)
N 4.6 mph
(N 7 kph)
- 10SM
04:35
Clear
27°F / -3°C 25°F / -4°C 93% 29.77 in
(1008 mb)
N 8.1 mph
(N 13 kph)
- 10SM
04:15
Clear
27°F / -3°C 25°F / -4°C 93% 29.77 in
(1008 mb)
N 8.1 mph
(N 13 kph)
- 10SM
03:55
Clear
28°F / -2°C 27°F / -3°C 93% 29.77 in
(1008 mb)
N 5.8 mph
(N 9 kph)
- 10SM
03:35
Clear
27°F / -3°C 25°F / -4°C 93% 29.77 in
(1008 mb)
NNE 3.5 mph
(NNE 6 kph)
- 10SM
03:15
Clear
27°F / -3°C 27°F / -3°C 100% 29.77 in
(1008 mb)
NNE 3.5 mph
(NNE 6 kph)
- 10SM
02:55
Clear
28°F / -2°C 27°F / -3°C 93% 29.77 in
(1008 mb)
Calm - 10SM
02:35
Clear
32°F / 0°C 30°F / -1°C 93% 29.77 in
(1008 mb)
E 3.5 mph
(E 6 kph)
- 10SM
02:15
Clear
32°F / 0°C 28°F / -2°C 87% 29.77 in
(1008 mb)
E 3.5 mph
(E 6 kph)
- 10SM
01:55
Clear
36°F / 2°C 34°F / 1°C 93% 29.77 in
(1008 mb)
Calm - 10SM
01:35
Clear
36°F / 2°C 32°F / 0°C 87% 29.77 in
(1008 mb)
Calm - 10SM
01:15
Clear
34°F / 1°C 32°F / 0°C 93% 29.77 in
(1008 mb)
SE 4.6 mph
(SE 7 kph)
- 10SM
00:55
Clear
34°F / 1°C 30°F / -1°C 87% 29.77 in
(1008 mb)
SSE 3.5 mph
(SSE 6 kph)
- 10SM
00:35
Clear
36°F / 2°C 32°F / 0°C 87% 29.8 in
(1009 mb)
Calm - 10SM
00:15
Clear
37°F / 3°C 34°F / 1°C 87% 29.8 in
(1009 mb)
Calm - 10SM
Time Weather Temperature Dewpoint Humidity Pressure Winds Precip Visibility


Weather for websites

WeatherForYou.com, LLC is not responsible for any damages or problems caused by this service. Current weather conditions are obtained from the closest station including government and personal stations which may have varying degrees of accuracy. Weather forecasts are derived from the NOAA NDFD. Like all things, this site belongs to Jesus Christ... He just trusts us to maintain it. If you have any questions or comments email webmaster@weatherforyou.com

Copyright © 2015, WeatherForYou.com LLC. All rights reserved.